www.pogodaiklimat.ru

Погода и климат >> Архив погоды >> Россия >> Чукотка >> Айон Остров


ПОГОДА на Айон Острове

  • Прогноз погоды на Айон Острове
  • Монитор погоды на Айон Острове
  • Климат города

АРХИВ ПОГОДЫ на Айон Острове

Время (UTC), дата Ветер
(напр.,м/с)
 
Видим.   Явления Облачность Т
(С)
Тd
(С)
f
(%)
Тe
(С)
Тes
(С)
Комфортность P
(гПа)
Po
(гПа)
Тmin
(С)
Tmax
(С)
R
(мм)
R24
(мм)
S
(см)
09 17.05 З 5-6
{11}
20 км в посл. час снег 10/8 240 м
[St Ac und]
-2.2 -3.7 89 -9 -9 1011.0 1009.3 +1.1 0.2
15 17.05 В 1-2
{6}
20 км 10/10 210 м
[St]
-2.9 -4.9 86 -5 -5 1011.3 1009.5
21 17.05 ЮВ 6-8
{8}
20 км 10/10 150 м
[St]
-3.4 -5.1 88 -11 -11 1009.7 1007.9 -3.8 3
00 18.05 ЮВ 6-8
{8}
20 км 10/10 150 м
[St]
-3.4 -5.1 88 -11 -11 1009.7 1007.9 -3.8
03 18.05 ЮВ 7-9
{14}
20 км 10/8 120 м
[St Ac und]
-0.5 -1.4 94 -8 -8 1007.3 1005.6
06 18.05 ЮВ 7-9
{14}
20 км 10/8 120 м
[St Ac und]
-0.5 -1.4 94 -8 -8 1007.3 1005.6
09 18.05 ЮВ 9-10
{10}
20 км 3/0
[Ac trans]
+0.3 -0.8 92 -8 -8 1006.4 1004.7 +1.2
15 18.05 В 5-6
{12}
20 км ясно -1.1 -2.7 89 -8 -8 1007.0 1005.3
21 18.05 ЮВ 10-12
{14}
20 км ясно +1.8 -0.2 87 -6 -6 1007.0 1005.3 -1.7 1
03 19.05 ЮВ 8-10
{13}
20 км ясно +2.5 +0.5 87 -4 -3 1006.5 1004.8
09 19.05 В 5-8
{10}
20 км ясно +0.6 -0.3 94 -6 -5 1006.4 1004.7 +2.7
15 19.05 В 8-10
{12}
20 км ясно -0.1 -1.2 92 -8 -8 1005.9 1004.2
21 19.05 ЮВ 9-12
{14}
20 км 3/0
[Ci fib]
+2.0 +0.4 89 -5 -5 1005.9 1004.2 -1.1 0
03 20.05 В 8-12
{13}
20 км 3/0
[Ci fib]
+3.3 +0.9 84 -3 -2 1006.0 1004.3
09 20.05 В 7-10
{12}
20 км 3/0
[Ci fib]
+1.1 +0.3 94 -6 -6 1006.5 1004.8 +3.9
15 20.05 В 5-8
{10}
20 км 10/0
[Ac trans]
-3.0 -4.7 88 -10 -10 1007.4 1005.6
21 20.05 В 7-10
{11}
20 км 3/0
[Ac trans]
-0.4 -1.4 93 -8 -6 1007.7 1006.0 -3.1 0
03 21.05 В 7-10
{11}
20 км 3/0
[Ac trans]
+0.4 -0.6 93 -7 -5 1007.0 1005.3
09 21.05 В 6-9
{11}
20 км 3/3 200 м
[St]
-1.6 -3.3 88 -9 -8 1007.0 1005.3 +0.4
15 21.05 В 7-11
{13}
20 км 3/0
[Ci fib]
-3.1 -4.8 88 -11 -11 1007.4 1005.6
21 21.05 В 9-13
{14}
20 км ясно -0.9 -2.5 89 -9 -9 1008.8 1007.1 -3.2 0
03 22.05 В 10-15
{17}
20 км 8/8 420 м
[St]
-0.7 -2.3 89 -9 -9 1009.6 1007.9
09 22.05 В 9-15
{16}
20 км 9/9 420 м
[St]
-3.6 -4.8 91 -13 -13 1011.7 1009.9 -0.1
15 22.05 В 7-9
{16}
20 км 8/8 330 м
[St]
-6.1 -7.6 89 -15 -15 1013.1 1011.3
21 22.05 В 8-13
{14}
20 км 10/10 270 м
[St]
-4.2 -5.4 91 -13 -13 1014.4 1012.6 -6.3 0
03 23.05 СВ 8-11
{14}
20 км 9/9 240 м
[St]
-2.9 -4.2 91 -11 -11 1014.8 1013.0
09 23.05 СВ 7-10
{13}
20 км 10/10 210 м
[St]
-3.9 -5.4 89 -12 -12 1016.1 1014.3 -2.7
15 23.05 СВ 7-10
{13}
20 км 10/10 210 м
[St]
-5.2 -6.9 88 -14 -14 1016.6 1014.8
21 23.05 СВ 6-9
{10}
20 км 9/8 240 м
[St Ac trans]
-3.8 -5.3 89 -11 -11 1017.0 1015.2 -5.3 0
03 24.05 СВ 7-10
{12}
20 км 8/6 270 м
[St Ac trans]
-3.0 -4.3 91 -11 -10 1016.6 1014.8

 

Местоположение метеостанции Айон Остров (Чукотка, Россия): широта 69.93 долгота 167.90 высота над уровнем моря 14 м.

В архиве по умолчанию представлена погода на Айон Острове за последнюю неделю. Архивные данные за месяц целиком и за предыдущие месяцы, начиная с января 2011 года, Вы можете получить, выбрав интересующий диапазон дат из раскрывающегося списка и нажав кнопку "Ввод!".

Внимание! Время в таблицах - всемирное. Для получения местного времени необходимо прибавить поправку, которая на Айон Острове равна 12 ч.

Смотрите также архив погоды в соседних городах и на ближайших метеорологических станциях:

Погода в Раучуе (Чукотка, Россия) (72 км)
Погода в Певеке (Чукотка, Россия) (92 км)
Погода в Валькаркае (Чукотка, Россия) (115 км)
Погода в 21 км (Чукотка, Россия) (117 км)
Погода в Чауне (Чукотка, Россия) (160 км)
Погода в Комсомольской (Чукотка, Россия) (211 км)
Погода в Билибино (Чукотка, Россия) (217 км)
Погода в Бухте Амбарчик (Чукотка, Россия) (218 км)
Погода на Островном (Чукотка, Россия) (252 км)
Погода в Паляваам-Глубокой (Чукотка, Россия) (257 км)

Пояснения к столбцам:

Ветер - указаны скорость ветра в м/с - средняя за 10 мин, порывы в срок и между сроками (в фигурных скобках) и направление, откуда дует ветер: С - северный, СВ - северо-восточный, В - восточный, ЮВ - юго-восточный, Ю - южный, ЮЗ - юго-западный, З - западный, СЗ - северо-западный.
Видимость - горизонтальная дальность видимости в метрах или километрах. При видимости от 1 до 10 км при отсутствии осадков обычно наблюдается дымка, при ухудшении видимости до 1 км и менее - туман. В сухую погоду видимость может ухудшаться дымом, пылью или мглою.
Явления - указаны атмосферные явления, наблюдавшиеся в срок или в последний час перед сроком; фигурными скобками обозначены явления, наблюдавшиеся между сроками (за 1-3 часа до срока); квадратными скобками обозначены град или гололедные отложения с указанием их диаметра в мм.
Облачность - указаны через наклонную черту общая и нижняя облачность в баллах и высота нижней границы облаков в метрах; квадратными скобками обозначены формы облаков: Ci - перистые, Cs - перисто-слоистые, Cc - перисто-кучевые, Ac - высококучевые, As - высокослоистые, Sc - слоисто-кучевые, Ns - слоисто-дождевые, Cu - кучевые, Cb - кучево-дождевые. Подробнее классификацию облаков см. в Атласе облаков (PDF).
T - Температура воздуха - температура, измеренная на высоте 2 м над землей.
Td - Температура точки росы - температура, при понижении до которой содержащийся в воздухе водяной пар достигнет насыщения.
f - Относительная влажность воздуха - влажноcть воздуха, измеренная на высоте 2 м над землей.
Te - Эффективная температура - температура, которую ощущает одетый по сезону человек в тени. Характеристика душности погоды. При расчете учитывается влияние влажности воздуха и скорости ветра на теплоощущения человека.
Tes - Эффективная температура на солнце - температура, которую ощущает человек, с поправкой на солнечный нагрев. Характеристика знойности погоды. Зависит от высоты солнца над горизонтом, облачности и скорости ветра. Ночью, в пасмурную погоду, а также при ветре 12 м/с и более поправка равна нулю.
P - Атмосферное давление - приведенное к уровню моря атмосферное давление.
Po - Атмосферное давление - измеренное на уровне метеостанции атмосферное давление.
Tmin - Минимальная температура - минимум температуры воздуха на высоте 2 м над землей.
Tmax - Максимальная температура - максимум температуры воздуха на высоте 2 м над землей.
R - Количество осадков - Количество выпавших осадков за период времени, мм. При наведении курсора мыши на число - период времени, за который выпало указанное количество осадков.
R24 - Количество осадков - Количество выпавших осадков за 24 часа, мм.
S - Снежный покров - Высота снежного покрова, см. При наведении курсора мыши на число - состояние снежного покрова и степень покрытия местности в баллах.